Regional Weather Roundup
Issued by NWS

Home | Current Version | Previous Version | Text Only | Print | Product List | Glossary On
Versions: 1 2 3 4 5 6 7 8 9 10 11 12 13 14 15 16 17 18 19 20 21 22 23 24 25 26 27 28 29 30 31 32 33 34 35 36 37 38 39 40 41 42 43 44 45 46 47 48 49 50
000
ASUS46 KPQR 010810
RWROR

OREGON REGIONAL WEATHER ROUNDUP
NATIONAL WEATHER SERVICE PORTLAND OR
100 AM PDT WED JUN 01 2016

NOTE: "FAIR" INDICATES FEW OR NO CLOUDS BELOW 12,000 FEET WITH
NO SIGNIFICANT WEATHER AND/OR OBSTRUCTIONS TO VISIBILITY.

ORZ001>013-010900-
NORTHWEST OREGON


CITY           SKY/WX    TMP DP  RH WIND       PRES   REMARKS
ASTORIA        MOCLDY    55  52  89 CALM      30.01S
NEWPORT        CLOUDY    52  52 100 NW8       30.04S
PORTLAND       PTCLDY    65  46  50 NW6       29.96R
VANCOUVER WA   PTCLDY    65  45  48 NW6       29.95R
SCAPPOOSE      PTCLDY    65  42  43 N8        29.95S
HILLSBORO      PTCLDY    64  43  46 W9        29.95S
AURORA         PTCLDY    64  45  49 NW6       29.97R
MCMINNVILLE    PTCLDY    58  45  62 W5        29.96S
SALEM          PTCLDY    60  44  55 SE5       29.95S
CORVALLIS        N/A     61  43  51 NW9       29.98S
EUGENE         MOCLDY    57  49  74 CALM      29.96S
$$

ORZ021-028-010900-
SOUTHWEST OREGON


CITY           SKY/WX    TMP DP  RH WIND       PRES   REMARKS
NORTH BEND     PTCLDY    54  52  94 N5        30.03S
BROOKINGS      PTCLDY    53  50  89 CALM      29.94F
ROSEBURG       CLEAR     63  45  51 CALM      29.97R
SEXTON SUMMIT  CLEAR     57  43  59 N12       30.05S
MEDFORD        CLEAR     69  48  47 CALM      29.95S
$$

ORZ014>016-041-010900-
COLUMBIA GORGE


CITY           SKY/WX    TMP DP  RH WIND       PRES   REMARKS
TROUTDALE      PTCLDY    65  46  50 CALM      29.95R
THE DALLES     MOCLDY    63  39  41 CALM      29.91S
$$

ORZ029>031-041-044-049-050-061>064-502-503-505>511-010900-
EASTERN OREGON


CITY           SKY/WX    TMP DP  RH WIND       PRES   REMARKS
REDMOND        CLEAR     55  33  43 CALM      30.01F
BEND           CLEAR     61  34  36 W6        30.02F
PRINEVILLE     CLEAR     50  39  66 CALM      30.01F
KLAMATH FALLS  NOT AVBL
LAKEVIEW       CLEAR     45  36  70 N7        30.08S
HERMISTON      PTCLDY    55  44  66 E5        29.90F
PENDLETON      PTCLDY    58  42  55 SE9       29.93F
JOHN DAY       CLEAR     56  33  41 SE3       30.04S
MEACHAM        CLEAR     42  38  85 CALM      30.04F
LA GRANDE      CLEAR     54  34  47 S5        30.01S
BAKER CITY     PTCLDY    46  38  73 NW3       30.04F
BURNS          PTCLDY    45  33  63 W3        30.05S
ROME             N/A     57  26  30 VRB3      30.03F
ONTARIO        PTCLDY    56  40  55 W5        29.99F
$$



USA.gov is the U.S. government's official web portal to all federal, state and local government web resources and services.